{"data":{"norad_id":62068,"intl_designator":"2024-217M","name":"STARLINK-11467 [DTC]","alt_names":[],"object_type":"PAYLOAD","status":"ACTIVE","operator":null,"country":"US","launch_date":"2024-11-24","launch_site_code":"AFWTR","launch_vehicle":null,"mission":null,"orbit_class":"UNKNOWN","rcs_meters":null,"size_class":null,"mass_kg":null,"dimensions":null,"purposes":["comms"],"wikipedia_slug":null,"has_3d_model":false,"image_url":null,"decayed_at":null,"tle_current":{"epoch":"2026-05-25T00:31:23.524320Z","epoch_age_seconds":69599,"freshness":"FRESH","line1":"1 62068U 24217M   26145.02180005  .00153397  00000+0  12475-2 0  9990","line2":"2 62068  53.1574  54.8704 0001006  73.1331 286.9797 15.69714934 87161","mean_motion":15.69714934,"eccentricity":0.0001006,"inclination_deg":53.1574,"raan_deg":54.8704,"arg_perigee_deg":73.1331,"mean_anomaly_deg":286.9797,"bstar":0.0012475,"rev_number":8716,"period_min":91.736401865691,"perigee_km":359.0348035645,"apogee_km":360.3904589103,"semimajor_km":6737.8496312374,"source":"CELESTRAK","updated_at":"2026-05-25T13:38:19.552107Z"}}}